Change the Weather History Date:

Saturday, July 6, 2013

  Actual Average (KHGR) Record (KHGR)
Temperature  
Mean Temperature 80 °F -  
Max Temperature 91 °F 82 °F 100 °F (2010)
Min Temperature 69 °F 62 °F 54 °F (2001)
Cooling Degree Days 15    
Growing Degree Days 30 (Base 50)    
Moisture  
Dew Point 72 °F    
Average Humidity 81    
Maximum Humidity 100    
Minimum Humidity 52    
Precipitation  
Precipitation 0.00 in - - ()
Sea Level Pressure  
Sea Level Pressure 30.17 in    
Wind  
Wind Speed 4 mph (SSW)    
Max Wind Speed 12 mph    
Max Gust Speed -    
Visibility 10 miles    
Events      
Averages and records for this station are not official NWS values.
T = Trace of Precipitation, MM = Missing Value Source: NWS Daily Summary

Daily Weather History Graph

Daily Weather History Graph

Search for Another Location

Airport or City:

Trip Planner

Search our weather history database for the weather conditions in past years. The results will help you decide how hot, cold, wet, or windy it might be!

Date:

Astronomy

Jul. 06, 2013 Rise Set
Actual Time 5:49 AM EDT 8:39 PM EDT
Civil Twilight 5:17 AM EDT 9:11 PM EDT
Nautical Twilight 4:36 AM EDT 9:51 PM EDT
Astronomical Twilight 3:50 AM EDT 10:37 PM EDT
Moon 4:33 AM EDT (7/6) 7:19 PM EDT (7/6)
Length of Visible Light 15h 54m
Length of Day
14h 50m
Waning Crescent, 2% of the Moon is Illuminated
Jul 6
Waning Crescent
Jul 8
New
Jul 15
First Quarter
Jul 22
Full
Jul 29
Last Quarter

Hourly Weather History & Observations

Time (EDT) Temp. Heat Index Dew Point Humidity Pressure Visibility Wind Dir Wind Speed Gust Speed Precip Events Conditions
12:15 AM 77.0 °F - 71.6 °F 83% 30.19 in 10.0 mi South 6.9 mph - N/A   Clear
12:35 AM 77.0 °F - 71.6 °F 83% 30.19 in 10.0 mi South 6.9 mph - N/A   Clear
12:55 AM 77.0 °F - 71.6 °F 83% 30.19 in 10.0 mi South 4.6 mph - N/A   Clear
1:15 AM 77.0 °F - 71.6 °F 83% 30.19 in 10.0 mi South 3.5 mph - N/A   Clear
1:35 AM 77.0 °F - 71.6 °F 83% 30.19 in 10.0 mi South 3.5 mph - N/A   Clear
1:55 AM 73.4 °F - 71.6 °F 94% 30.19 in 10.0 mi Calm Calm - N/A   Clear
2:15 AM 71.6 °F - 71.6 °F 100% 30.19 in 10.0 mi Calm Calm - N/A   Clear
2:35 AM 71.6 °F - 71.6 °F 100% 30.19 in 10.0 mi Calm Calm - N/A   Clear
2:55 AM 71.6 °F - 71.6 °F 100% 30.18 in 10.0 mi Calm Calm - N/A   Clear
3:15 AM 71.6 °F - 71.6 °F 100% 30.19 in 10.0 mi Calm Calm - N/A   Clear
3:35 AM 71.6 °F - 71.6 °F 100% 30.19 in 10.0 mi Calm Calm - N/A   Clear
3:55 AM 71.6 °F - 71.6 °F 100% 30.19 in 10.0 mi SSE 3.5 mph - N/A   Clear
4:15 AM 71.6 °F - 71.6 °F 100% 30.19 in 10.0 mi SSE 3.5 mph - N/A   Clear
4:35 AM 71.6 °F - 71.6 °F 100% 30.19 in 10.0 mi Calm Calm - N/A   Clear
4:55 AM 71.6 °F - 71.6 °F 100% 30.19 in 10.0 mi Calm Calm - N/A   Clear
5:15 AM 71.6 °F - 71.6 °F 100% 30.19 in 10.0 mi Calm Calm - N/A   Clear
5:35 AM 71.6 °F - 71.6 °F 100% 30.20 in 10.0 mi Calm Calm - N/A   Clear
5:55 AM 69.8 °F - 69.8 °F 100% 30.20 in 7.0 mi Calm Calm - N/A   Clear
6:15 AM 69.8 °F - 69.8 °F 100% 30.21 in 7.0 mi SSE 3.5 mph - N/A   Clear
6:35 AM 71.6 °F - 71.6 °F 100% 30.21 in 10.0 mi South 4.6 mph - N/A   Clear
6:45 AM 71.6 °F - 71.6 °F 100% 30.21 in 10.0 mi SSW 4.6 mph - N/A   Clear
6:47 AM 73.4 °F - 73.4 °F 100% 30.21 in 10.0 mi SW 5.8 mph - N/A   Clear
7:46 AM 78.8 °F - 73.4 °F 83% 30.22 in 10.0 mi SSW 4.6 mph - N/A   Clear
8:52 AM 82.4 °F 88.2 °F 73.4 °F 74% 30.22 in 10.0 mi SW 4.6 mph - N/A   Clear
9:45 AM 84.2 °F 90.9 °F 73.4 °F 70% 30.22 in 10.0 mi SW 5.8 mph - N/A   Clear
10:45 AM 87.8 °F 93.8 °F 71.6 °F 58% 30.21 in 10.0 mi SW 5.8 mph - N/A   Clear
11:50 AM 89.6 °F 98.2 °F 73.4 °F 59% 30.20 in 10.0 mi SSW 6.9 mph - N/A   Scattered Clouds
12:45 PM 91.4 °F 100.1 °F 73.4 °F 55% 30.19 in 10.0 mi SW 8.1 mph - N/A   Scattered Clouds
1:50 PM 91.4 °F 98.4 °F 71.6 °F 52% 30.16 in 10.0 mi South 5.8 mph - N/A   Scattered Clouds
2:50 PM 91.4 °F 98.4 °F 71.6 °F 52% 30.15 in 10.0 mi SSW 6.9 mph - N/A   Clear
3:45 PM 91.4 °F 98.4 °F 71.6 °F 52% 30.13 in 10.0 mi SSW 9.2 mph - N/A   Clear
4:50 PM 91.4 °F 100.1 °F 73.4 °F 55% 30.11 in 10.0 mi South 6.9 mph - N/A   Clear
5:48 PM 91.4 °F 100.1 °F 73.4 °F 55% 30.10 in 10.0 mi SW 11.5 mph - N/A   Scattered Clouds
6:52 PM 89.6 °F 96.2 °F 71.6 °F 55% 30.09 in 10.0 mi SW 11.5 mph - N/A   Clear
7:50 PM 87.8 °F 93.8 °F 71.6 °F 58% 30.10 in 10.0 mi SSW 5.8 mph - N/A   Clear
9:00 PM 80.6 °F 84.6 °F 71.6 °F 74% 30.10 in - South 6.9 mph - N/A   Clear
9:20 PM 80.6 °F 84.6 °F 71.6 °F 74% 30.11 in - SSE 4.6 mph - N/A   Clear
9:40 PM 80.6 °F 84.6 °F 71.6 °F 74% 30.12 in - South 6.9 mph - N/A   Clear
10:00 PM 78.8 °F - 69.8 °F 74% 30.12 in - South 3.5 mph - N/A   Clear
10:20 PM 78.8 °F - 69.8 °F 74% 30.12 in - South 4.6 mph - N/A   Clear
10:40 PM 78.8 °F - 69.8 °F 74% 30.13 in - South 5.8 mph - N/A   Clear
11:00 PM 78.8 °F - 69.8 °F 74% 30.13 in - South 5.8 mph - N/A   Clear
11:20 PM 77.0 °F - 69.8 °F 78% 30.14 in - SSW 5.8 mph - N/A   Clear
11:40 PM 77.0 °F - 69.8 °F 78% 30.14 in - SSW 6.9 mph - N/A   Clear